Date String (YYYY-MM-DD hh:mm:ss) UTC,Instrument flags,Ambient pressure (hPa),Sample flow (lpm),Bypass flow (lpm),Sample temperature (°C),Ambient temperature (°C),ASC tube jacket temperature (°C),LED temperature (°C),Box temperature (°C),Sample RH (%),Span deviation,Mass concentration (μg/m³),Mass concentration (μg/m³),Mass concentration (μg/m³)
DateTimeUTC,F1_M11,P_M11,Q1_M11,Q2_M11,T1_M11,T2_M11,T3_M11,T4_M11,T5_M11,U1_M11,ZSPAN_M11,X2_M11,X0_M11,X1_M11
2023-03-08 08:00:00,,0827.5,5.02,0.00,22.4,22.8,00.0,31.0,24.4,14.4,-000.2,0005.07,0008.35,0004.72
2023-03-08 08:01:00,,0827.5,4.99,0.00,22.4,22.4,00.0,31.0,24.3,14.4,-000.2,0005.07,0008.31,0004.75
2023-03-08 08:02:00,,0827.5,5.00,0.00,22.4,21.9,00.0,31.0,24.3,14.4,-000.5,0005.09,0008.27,0004.79
2023-03-08 08:03:00,,0827.5,4.98,0.00,22.4,21.6,00.0,31.0,24.2,14.4,-000.5,0005.12,0008.26,0004.82
2023-03-08 08:04:00,,0827.5,5.00,0.00,22.4,21.3,00.0,31.1,24.1,14.4,-000.4,0005.12,0008.14,0004.85
2023-03-08 08:05:00,,0827.6,5.00,0.00,22.4,21.1,00.0,31.1,24.1,14.5,-000.9,0005.14,0008.12,0004.88
2023-03-08 08:06:00,,0827.5,4.99,0.00,22.4,20.9,00.0,31.1,24.0,14.5,-001.2,0005.13,0008.14,0004.88
2023-03-08 08:07:00,,0827.5,5.01,0.00,22.3,20.7,00.0,31.1,24.0,14.5,-001.2,0005.19,0008.47,0004.90
2023-03-08 08:08:00,,0827.5,5.02,0.00,22.3,20.6,00.0,31.0,24.0,14.5,-001.4,0005.21,0008.37,0004.91
2023-03-08 08:09:00,,0827.4,5.00,0.00,22.3,20.5,00.0,31.0,24.0,14.6,-001.5,0005.22,0007.94,0004.93
2023-03-08 08:10:00,,0827.4,5.02,0.00,22.3,20.5,00.0,31.0,24.0,14.6,-001.8,0005.23,0007.92,0004.95
2023-03-08 08:11:00,,0827.4,4.99,0.00,22.3,20.4,00.0,31.0,23.9,14.6,-002.3,0005.28,0008.01,0004.98
2023-03-08 08:12:00,,0827.4,5.00,0.00,22.2,20.3,00.0,31.0,23.9,14.6,-002.4,0005.30,0008.18,0004.99
2023-03-08 08:13:00,,0827.4,5.00,0.00,22.2,20.3,00.0,31.0,23.9,14.7,-002.2,0005.32,0008.26,0005.00
2023-03-08 08:14:00,,0827.5,4.99,0.00,22.2,20.3,00.0,31.0,23.8,14.7,-001.9,0005.34,0008.32,0005.00
2023-03-08 08:15:00,,0827.5,5.00,0.00,22.2,20.2,00.0,31.0,23.8,14.7,-002.2,0005.36,0008.37,0005.01
2023-03-08 08:16:00,,0827.5,5.00,0.00,22.1,20.2,00.0,31.0,23.8,14.8,-002.1,0005.36,0008.36,0005.00
2023-03-08 08:17:00,,0827.5,5.00,0.00,22.1,20.2,00.0,30.9,23.8,14.8,-001.7,0005.39,0008.36,0005.02
2023-03-08 08:18:00,,0827.4,5.02,0.00,22.1,20.5,00.0,30.9,23.8,14.8,-001.4,0005.39,0008.24,0005.04
2023-03-08 08:19:00,,0827.4,4.97,0.00,22.2,21.7,00.0,30.9,24.1,14.8,-001.4,0005.37,0008.09,0005.05
2023-03-08 08:20:00,,0827.4,5.01,0.00,22.3,22.7,00.0,30.9,24.3,14.7,-002.2,0005.37,0008.03,0005.07
2023-03-08 08:21:00,,0827.5,5.02,0.00,22.4,22.8,00.0,31.0,24.4,14.6,-002.2,0005.38,0008.08,0005.07
2023-03-08 08:22:00,,0827.5,5.02,0.00,22.4,22.4,00.0,31.0,24.3,14.6,-002.1,0005.42,0008.22,0005.08
2023-03-08 08:23:00,,0827.5,4.98,0.00,22.4,21.9,00.0,31.0,24.3,14.6,-001.6,0005.41,0008.09,0005.10
2023-03-08 08:24:00,,0827.5,4.99,0.00,22.4,21.6,00.0,31.0,24.2,14.6,-002.0,0005.43,0008.07,0005.12
2023-03-08 08:25:00,,0827.4,5.01,0.00,22.4,21.3,00.0,31.0,24.1,14.6,-002.4,0005.46,0008.40,0005.14
2023-03-08 08:26:00,,0827.4,5.00,0.00,22.4,21.1,00.0,31.0,24.1,14.6,-002.8,0005.48,0008.57,0005.17
2023-03-08 08:27:00,,0827.4,4.99,0.00,22.4,20.9,00.0,31.0,24.1,14.7,-003.1,0005.53,0008.64,0005.20
2023-03-08 08:28:00,,0827.4,4.99,0.00,22.3,20.8,00.0,31.0,24.1,14.7,-003.1,0005.57,0008.68,0005.23
2023-03-08 08:29:00,,0827.5,5.00,0.00,22.3,20.7,00.0,31.0,24.1,14.7,-003.3,0005.58,0008.52,0005.25
2023-03-08 08:30:00,,0827.4,5.01,0.00,22.3,20.6,00.0,31.0,24.0,14.7,-003.1,0005.63,0008.55,0005.29
2023-03-08 08:31:00,,0827.4,4.99,0.00,22.3,20.5,00.0,31.0,24.0,14.7,-002.5,0005.67,0008.58,0005.32
2023-03-08 08:32:00,,0827.4,5.00,0.00,22.3,20.5,00.0,31.0,24.0,14.7,-002.7,0005.68,0008.50,0005.35
2023-03-08 08:33:00,,0827.4,5.00,0.00,22.2,20.4,00.0,31.0,23.9,14.7,-002.7,0005.65,0008.34,0005.36
2023-03-08 08:34:00,,0827.4,4.99,0.00,22.2,20.4,00.0,31.0,23.9,14.8,-002.8,0005.67,0008.35,0005.37
2023-03-08 08:35:00,,0827.4,5.00,0.00,22.2,20.3,00.0,31.0,23.9,14.8,-002.5,0005.69,0008.57,0005.39
2023-03-08 08:36:00,,0827.4,4.99,0.00,22.2,20.3,00.0,31.0,23.9,14.9,-002.2,0005.72,0008.55,0005.42
2023-03-08 08:37:00,,0827.4,5.00,0.00,22.2,20.3,00.0,31.0,23.9,14.9,-001.3,0005.79,0008.50,0005.48
2023-03-08 08:38:00,,0827.4,5.00,0.00,22.2,20.3,00.0,31.0,23.8,14.9,-000.7,0005.84,0008.53,0005.53
2023-03-08 08:39:00,,0827.4,5.00,0.00,22.1,20.3,00.0,30.9,23.8,14.9,-000.8,0005.88,0008.54,0005.58
2023-03-08 08:40:00,,0827.4,5.02,0.00,22.1,20.7,00.0,30.9,23.9,14.9,-000.8,0005.96,0008.87,0005.64
2023-03-08 08:41:00,,0827.4,4.99,0.00,22.2,21.9,00.0,30.9,24.1,14.9,-001.0,0006.02,0009.10,0005.70
2023-03-08 08:42:00,,0827.4,5.03,0.00,22.3,22.9,00.0,30.9,24.3,14.8,-001.1,0006.07,0009.15,0005.74
2023-03-08 08:43:00,,0827.4,5.01,0.00,22.4,22.7,00.0,31.0,24.3,14.7,-000.9,0006.15,0009.27,0005.80
2023-03-08 08:44:00,,0827.4,4.99,0.00,22.4,22.3,00.0,31.0,24.3,14.7,-000.6,0006.25,0009.44,0005.86
2023-03-08 08:45:00,,0827.3,4.98,0.00,22.4,21.9,00.0,31.0,24.3,14.7,-001.0,0006.33,0009.56,0005.92
2023-03-08 08:46:00,,0827.3,4.99,0.00,22.4,21.6,00.0,31.0,24.2,14.7,-001.0,0006.36,0009.42,0005.96
2023-03-08 08:47:00,,0827.3,5.00,0.00,22.4,21.3,00.0,31.0,24.2,14.7,-001.3,0006.40,0009.40,0006.00
2023-03-08 08:48:00,,0827.3,5.00,0.00,22.4,21.1,00.0,31.1,24.1,14.7,-001.6,0006.40,0009.40,0006.01
2023-03-08 08:49:00,,0827.3,4.99,0.00,22.4,20.9,00.0,31.1,24.1,14.7,-001.8,0006.41,0009.42,0006.01
2023-03-08 08:50:00,,0827.2,5.00,0.00,22.4,20.8,00.0,31.1,24.1,14.7,-001.7,0006.42,0009.46,0006.02
2023-03-08 08:51:00,,0827.2,5.00,0.00,22.3,20.7,00.0,31.1,24.0,14.7,-001.8,0006.43,0009.48,0006.02
2023-03-08 08:52:00,,0827.2,5.01,0.00,22.3,20.6,00.0,31.0,24.0,14.8,-001.8,0006.42,0009.40,0006.02
2023-03-08 08:53:00,,0827.3,5.00,0.00,22.3,20.5,00.0,31.0,24.0,14.8,-001.4,0006.41,0009.43,0006.02
2023-03-08 08:54:00,,0827.4,5.00,0.00,22.3,20.5,00.0,31.0,24.0,14.8,-001.3,0006.42,0009.72,0006.02
2023-03-08 08:55:00,,0827.5,5.00,0.00,22.3,20.4,00.0,31.0,24.0,14.8,-001.1,0006.40,0010.03,0006.03
2023-03-08 08:56:00,,0827.2,5.00,0.00,22.2,20.4,00.0,31.0,23.9,14.9,-000.5,0006.40,0010.07,0006.04
2023-03-08 08:57:00,,0827.2,5.00,0.00,22.2,20.3,00.0,31.0,23.9,14.9,-000.2,0006.41,0010.05,0006.04
2023-03-08 08:58:00,,0827.2,5.00,0.00,22.2,20.3,00.0,31.0,23.8,14.9,0000.0,0006.38,0009.77,0006.03
2023-03-08 08:59:00,,0827.2,4.99,0.00,22.2,20.2,00.0,31.0,23.8,14.9,0000.2,0006.36,0009.76,0006.02
